This demonstration page uses our WeatherBlox Daily Observations layout. Learn more.

Left ArrowRight Arrow

53.62937, 11.41316

Hourly Observations for December 26, 2016

Temp ( °F °C ) Dew Point ( °F °C ) Humidity (%) Winds ( mph kmh ) Pressure ( in mb ) Visibility ( mi km ) Precip ( " mm )
12:20 am 00:20 Mostly Cloudy 50 10 48 9 94 94 WSW 14 22 29.94 1014 2 3 N/A
1:20 am 01:20 Mostly Cloudy 50 10 48 9 94 94 WSW 14 22 29.94 1014 2 3 N/A
2:20 am 02:20 Mostly Cloudy 50 10 48 9 94 94 WSW 13 20 29.94 1014 1 2 N/A
3:20 am 03:20 Partly Cloudy 50 10 48 9 94 94 WSW 15 24 29.94 1014 6 9 N/A
4:20 am 04:20 Mostly Cloudy 50 10 48 9 94 94 WSW 16 26 29.94 1014 1 2 N/A
5:20 am 05:20 Mostly Cloudy 50 10 48 9 94 94 WSW 15 24 29.91 1013 2 4 N/A
6:20 am 06:20 Mostly Cloudy 50 10 48 9 94 94 WSW 15 24 29.91 1013 2 3 N/A
7:20 am 07:20 Mostly Cloudy with Drizzle 50 10 48 9 94 94 WSW 17 28 29.91 1013 4 7 N/A
7:34 am 07:34 Mostly Cloudy with Drizzle 50 10 48 9 94 94 WSW 15 24 29.88 1012 5 8 N/A
7:59 am 07:59 Mostly Cloudy with Drizzle 50 10 48 9 94 94 WSW 17 28 29.88 1012 4 6 N/A
8:03 am 08:03 Mostly Cloudy with Drizzle 50 10 48 9 94 94 WSW 17 28 29.88 1012 3 5 N/A
8:20 am 08:20 Mostly Cloudy with Drizzle 50 10 48 9 94 94 WSW 16 26 29.88 1012 4 7 N/A
8:28 am 08:28 Mostly Cloudy with Drizzle 50 10 48 9 94 94 WSW 16 26 29.88 1012 2 4 N/A
8:43 am 08:43 Mostly Cloudy with Drizzle 50 10 48 9 94 94 WSW 16 26 29.88 1012 2 4 N/A
8:48 am 08:48 Mostly Cloudy with Drizzle 50 10 48 9 94 94 WSW 15 24 29.88 1012 3 5 N/A
9:20 am 09:20 Mostly Cloudy with Drizzle 50 10 48 9 94 94 WSW 14 22 29.88 1012 3 5 N/A
9:30 am 09:30 Mostly Cloudy with Drizzle 50 10 48 9 94 94 WSW 14 22 29.88 1012 2 4 N/A
9:34 am 09:34 Cloudy with Heavy Rain 50 10 48 9 94 94 WSW 15 24 29.88 1012 1 2 N/A
9:45 am 09:45 Cloudy with Heavy Rain 46 8 45 7 93 93 WNW 20 31 29.91 1013 2 4 N/A
9:49 am 09:49 Cloudy with Rain 46 8 45 7 93 93 NW 22 35 29.91 1013 3 5 N/A
10:07 am 10:07 Cloudy with Light Rain 46 8 45 7 93 93 WNW 17 28 29.91 1013 5 8 N/A
10:20 am 10:20 Cloudy with Light Rain 46 8 43 6 87 87 WNW 20 31 29.94 1014 5 8 N/A
10:41 am 10:41 Mostly Cloudy with Drizzle 45 7 43 6 93 93 WNW 17 28 29.97 1015 4 6 N/A
10:48 am 10:48 Mostly Cloudy with Drizzle 45 7 43 6 93 93 WNW 18 30 29.94 1014 5 8 N/A
11:20 am 11:20 Mostly Cloudy 45 7 41 5 87 87 W 15 24 29.94 1014 30 48 N/A
12:20 pm 12:20 Partly Cloudy 45 7 39 4 81 81 W 18 30 29.94 1014 30 48 N/A
1:20 pm 13:20 Partly Cloudy 46 8 39 4 76 76 W 20 31 29.94 1014 30 48 N/A
1:44 pm 13:44 Windy with Rain Showers Likely 46 8 39 4 76 76 W 20 31 29.91 1013 4 7 N/A
1:50 pm 13:50 Mostly Cloudy with Showers 45 7 37 3 76 76 W 21 33 29.94 1014 2 4 N/A
1:56 pm 13:56 Mostly Cloudy with Showers Nearby 41 5 37 3 87 87 W 29 46 29.94 1014 4 7 N/A
2:00 pm 14:00 Mostly Cloudy with Showers Nearby 41 5 37 3 87 87 W 28 44 29.94 1014 30 48 N/A
2:20 pm 14:20 Partly Cloudy 43 6 37 3 81 81 W 22 35 29.91 1013 30 48 N/A
3:20 pm 15:20 Mostly Cloudy with Showers Nearby 45 7 36 2 71 71 W 26 43 29.94 1014 30 48 N/A
4:20 pm 16:20 Windy with Rain Showers Likely 45 7 34 1 66 66 W 24 39 29.94 1014 5 8 N/A
4:28 pm 16:28 Mostly Cloudy with Showers 45 7 32 0 61 61 W 26 43 29.94 1014 5 8 N/A
4:35 pm 16:35 Mostly Cloudy with Showers 39 4 32 0 75 75 WNW 36 57 29.97 1015 4 6 N/A
5:20 pm 17:20 Mostly Cloudy with Showers Nearby 41 5 34 1 76 76 W 21 33 29.97 1015 30 48 N/A
5:36 pm 17:36 Mostly Cloudy with Showers 41 5 34 1 76 76 W 23 37 29.97 1015 3 5 N/A
5:44 pm 17:44 Windy with Rain Showers Likely 39 4 34 1 81 81 W 25 41 30.00 1016 30 48 N/A
6:17 pm 18:17 Mostly Cloudy with Thunderstorms 39 4 34 1 81 81 W 26 43 29.97 1015 2 3 N/A
6:20 pm 18:20 Mostly Cloudy with Thunderstorms 39 4 34 1 81 81 W 31 50 30.00 1016 2 3 N/A
6:34 pm 18:34 Windy with Rain Showers Likely 37 3 34 1 87 87 W 30 48 30.00 1016 5 8 N/A
7:20 pm 19:20 Mostly Cloudy 39 4 32 0 75 75 W 24 39 30.00 1016 30 48 N/A
7:32 pm 19:32 Mostly Cloudy with Thunderstorms 39 4 34 1 81 81 W 22 35 30.00 1016 30 48 N/A
7:37 pm 19:37 Mostly Cloudy with Thunderstorms 39 4 34 1 81 81 W 21 33 30.03 1017 30 48 N/A
7:45 pm 19:45 Mostly Cloudy with Thunderstorms 41 5 32 0 70 70 W 30 48 30.03 1017 1 2 N/A
8:20 pm 20:20 Mostly Cloudy with Snow 34 1 32 0 93 93 WNW 16 26 30.03 1017 1 2 N/A
8:31 pm 20:31 Mostly Cloudy with Snow 34 1 32 0 93 93 WNW 15 24 30.03 1017 1 1 N/A
8:40 pm 20:40 Mostly Cloudy with Light Snow Showers 34 1 32 0 93 93 WNW 18 30 30.03 1017 2 4 N/A
8:46 pm 20:46 Partly Cloudy 34 1 32 0 93 93 WNW 21 33 30.03 1017 6 9 N/A
9:20 pm 21:20 Mostly Cloudy 36 2 34 1 93 93 WSW 13 20 30.00 1016 2 4 N/A
10:20 pm 22:20 Partly Cloudy 37 3 34 1 87 87 WSW 18 30 30.00 1016 4 6 N/A
11:20 pm 23:20 Partly Cloudy 39 4 34 1 81 81 W 23 37 30.00 1016 4 6 N/A

Powered by AerisWeather